| time (UTC) | temp C | wind direction | speed KPH | gust KPH | rain 1hr cm | rain 24hr cm | rain mn cm | humidity % | barometer mb |
| 20260503055046 | 13 | 0 | 0.0 | 0.0 | 0.00 | 0.41 | 0.00 | 85 | 1013.6 |
| 20260503053044 | 13 | 0 | 0.0 | 0.0 | 0.00 | 0.41 | 0.00 | 89 | 1013.7 |
| 20260503052046 | 13 | 0 | 0.0 | 0.0 | 0.00 | 0.41 | 0.00 | 90 | 1013.6 |
| 20260503051045 | 13 | 0 | 0.0 | 0.0 | 0.00 | 0.41 | 0.00 | 91 | 1013.6 |
| 20260503050044 | 13 | 0 | 0.0 | 0.0 | 0.00 | 0.41 | 0.00 | 91 | 1013.6 |
| 20260503045041 | 13 | 0 | 0.0 | 0.0 | 0.00 | 0.41 | 0.00 | 90 | 1013.5 |
| 20260503044044 | 13 | 0 | 0.0 | 0.0 | 0.00 | 0.41 | 0.00 | 90 | 1013.6 |
| 20260503043043 | 13 | 0 | 0.0 | 0.0 | 0.00 | 0.41 | 0.00 | 91 | 1013.8 |
| 20260503041042 | 13 | 0 | 0.0 | 0.0 | 0.00 | 0.43 | 0.00 | 91 | 1013.9 |
| 20260503040041 | 13 | 0 | 0.0 | 0.0 | 0.00 | 0.43 | 0.00 | 91 | 1013.9 |
| 20260503035044 | 13 | 0 | 0.0 | 0.0 | 0.00 | 0.43 | 0.00 | 91 | 1013.9 |
| 20260503034042 | 13 | 0 | 0.0 | 0.0 | 0.00 | 0.43 | 0.00 | 91 | 1013.9 |
| 20260503032044 | 13 | 0 | 0.0 | 0.0 | 0.00 | 0.43 | 0.00 | 90 | 1013.8 |
| 20260503031043 | 13 | 0 | 0.0 | 0.0 | 0.00 | 0.43 | 0.00 | 90 | 1013.8 |
| 20260503025041 | 13 | 0 | 0.0 | 0.0 | 0.00 | 0.43 | 0.00 | 89 | 1013.9 |
| 20260503023042 | 14 | 0 | 0.0 | 0.0 | 0.00 | 0.43 | 0.00 | 89 | 1014.0 |
| 20260503021044 | 13 | 0 | 0.0 | 0.0 | 0.00 | 0.43 | 0.00 | 90 | 1014.2 |
| 20260503020043 | 13 | 0 | 0.0 | 0.0 | 0.00 | 0.43 | 0.00 | 90 | 1014.3 |
| 20260503015042 | 13 | 0 | 0.0 | 0.0 | 0.00 | 0.43 | 0.00 | 90 | 1014.4 |
| 20260503014044 | 13 | 0 | 0.0 | 0.0 | 0.00 | 0.43 | 0.00 | 91 | 1014.4 |
| 20260503013042 | 13 | 0 | 0.0 | 0.0 | 0.00 | 0.43 | 0.00 | 92 | 1014.4 |
| 20260503012042 | 13 | 0 | 0.0 | 0.0 | 0.00 | 0.43 | 0.00 | 95 | 1014.5 |
| 20260503005043 | 12 | 0 | 0.0 | 0.0 | 0.00 | 0.43 | 0.00 | 10 | 1014.8 |
| 20260503004044 | 11 | 0 | 0.0 | 0.0 | 0.00 | 0.43 | 0.00 | 99 | 1014.9 |
| 20260503003045 | 11 | 0 | 0.0 | 0.0 | 0.00 | 0.43 | 0.00 | 99 | 1014.9 |
| 20260503002045 | 12 | 0 | 0.0 | 0.0 | 0.00 | 0.43 | 0.00 | 99 | 1015.0 |
| 20260503001043 | 12 | 0 | 0.0 | 0.0 | 0.00 | 0.43 | 0.00 | 98 | 1015.1 |
| 20260503000050 | 12 | 0 | 0.0 | 0.0 | 0.00 | 0.43 | 0.00 | 98 | 1015.2 |
| 20260502235046 | 12 | 0 | 0.0 | 0.0 | 0.00 | 0.43 | 0.00 | 99 | 1015.2 |
| 20260502234046 | 12 | 0 | 0.0 | 0.0 | 0.00 | 0.43 | 0.00 | 98 | 1015.2 |
| 20260502232046 | 13 | 0 | 0.0 | 0.0 | 0.00 | 0.43 | 0.00 | 98 | 1015.3 |
| 20260502231045 | 13 | 0 | 0.0 | 0.0 | 0.00 | 0.43 | 0.00 | 98 | 1015.3 |
| 20260502230044 | 13 | 0 | 0.0 | 0.0 | 0.00 | 0.43 | 0.00 | 97 | 1015.4 |
| 20260502225046 | 13 | 0 | 0.0 | 0.0 | 0.00 | 0.43 | 0.00 | 97 | 1015.5 |
| 20260502223047 | 13 | 0 | 0.0 | 0.0 | 0.00 | 0.43 | 0.00 | 98 | 1015.5 |
| 20260502222048 | 13 | 0 | 0.0 | 0.0 | 0.00 | 0.43 | 0.00 | 98 | 1015.5 |
| 20260502221046 | 13 | 0 | 0.0 | 0.0 | 0.00 | 0.43 | 0.00 | 98 | 1015.5 |
| 20260502220047 | 13 | 0 | 0.0 | 0.0 | 0.00 | 0.43 | 0.00 | 98 | 1015.5 |
| 20260502215047 | 13 | 0 | 0.0 | 0.0 | 0.00 | 0.43 | 0.43 | 98 | 1015.5 |
| 20260502214045 | 13 | 0 | 0.0 | 0.0 | 0.00 | 0.43 | 0.43 | 98 | 1015.6 |
| 20260502213051 | 13 | 0 | 0.0 | 0.0 | 0.00 | 0.43 | 0.43 | 98 | 1015.6 |
| 20260502212044 | 13 | 0 | 0.0 | 0.0 | 0.00 | 0.43 | 0.43 | 98 | 1015.7 |
| 20260502211047 | 13 | 0 | 0.0 | 0.0 | 0.00 | 0.43 | 0.43 | 98 | 1015.8 |
| 20260502210049 | 13 | 0 | 0.0 | 0.0 | 0.00 | 0.43 | 0.43 | 98 | 1015.7 |
| 20260502205051 | 13 | 0 | 0.0 | 0.0 | 0.00 | 0.43 | 0.43 | 97 | 1015.7 |
| 20260502204047 | 13 | 0 | 0.0 | 0.0 | 0.00 | 0.43 | 0.43 | 98 | 1015.7 |
| 20260502203048 | 13 | 0 | 0.0 | 0.0 | 0.00 | 0.43 | 0.43 | 97 | 1015.8 |
| 20260502202050 | 13 | 0 | 0.0 | 0.0 | 0.00 | 0.43 | 0.43 | 97 | 1015.8 |
| 20260502201053 | 13 | 0 | 0.0 | 0.0 | 0.00 | 0.43 | 0.43 | 96 | 1015.8 |
| 20260502200048 | 13 | 0 | 0.0 | 0.0 | 0.00 | 0.43 | 0.43 | 95 | 1015.9 |
| 20260502195046 | 14 | 0 | 0.0 | 0.0 | 0.00 | 0.43 | 0.43 | 95 | 1016.0 |
| 20260502194044 | 14 | 0 | 0.0 | 0.0 | 0.30 | 0.43 | 0.43 | 93 | 1015.9 |
| 20260502192048 | 14 | 0 | 0.0 | 0.0 | 0.41 | 0.43 | 0.43 | 93 | 1016.1 |
| 20260502191052 | 14 | 0 | 0.0 | 0.0 | 0.41 | 0.43 | 0.43 | 93 | 1016.1 |
| 20260502190049 | 15 | 0 | 0.0 | 0.0 | 0.41 | 0.43 | 0.43 | 91 | 1016.2 |
| 20260502185046 | 15 | 0 | 0.0 | 0.0 | 0.41 | 0.43 | 0.43 | 87 | 1016.1 |
| 20260502184048 | 16 | 0 | 0.0 | 0.0 | 0.41 | 0.43 | 0.43 | 75 | 1016.1 |
| 20260502164047 | 22 | 0 | 0.0 | 0.0 | 0.00 | 0.03 | 0.03 | 56 | 1015.3 |
| 20260502163046 | 22 | 0 | 0.0 | 0.0 | 0.00 | 0.03 | 0.03 | 55 | 1015.5 |
| 20260502162045 | 22 | 0 | 0.0 | 0.0 | 0.00 | 0.03 | 0.03 | 55 | 1015.7 |
| 20260502161048 | 22 | 0 | 0.0 | 0.0 | 0.00 | 0.03 | 0.03 | 53 | 1015.8 |
| 20260502151046 | 23 | 0 | 0.0 | 0.0 | 0.00 | 0.03 | 0.03 | 54 | 1016.5 |
| 20260502123044 | 21 | 0 | 0.0 | 0.0 | 0.00 | 0.03 | 0.03 | 62 | 1019.0 |
| 20260502122046 | 21 | 0 | 0.0 | 0.0 | 0.00 | 0.03 | 0.03 | 63 | 1019.1 |
| 20260502115041 | 21 | 0 | 0.0 | 0.0 | 0.00 | 0.03 | 0.03 | 63 | 1019.5 |
| 20260502114045 | 21 | 0 | 0.0 | 0.0 | 0.00 | 0.03 | 0.03 | 63 | 1019.7 |
| 20260502112043 | 21 | 0 | 0.0 | 0.0 | 0.00 | 0.03 | 0.03 | 64 | 1019.9 |
| 20260502111046 | 21 | 0 | 0.0 | 0.0 | 0.00 | 0.03 | 0.03 | 64 | 1019.9 |
| 20260502110042 | 20 | 0 | 0.0 | 0.0 | 0.00 | 0.03 | 0.03 | 64 | 1020.0 |
| 20260502105044 | 20 | 0 | 0.0 | 0.0 | 0.00 | 0.03 | 0.03 | 64 | 1020.1 |
| 20260502104046 | 20 | 0 | 0.0 | 0.0 | 0.00 | 0.03 | 0.03 | 64 | 1020.2 |
| 20260502102043 | 20 | 0 | 0.0 | 0.0 | 0.00 | 0.03 | 0.03 | 65 | 1020.3 |
| 20260502071044 | 13 | 0 | 0.0 | 0.0 | 0.00 | 0.03 | 0.03 | 77 | 1021.9 |
| 20260502065046 | 13 | 0 | 0.0 | 0.0 | 0.00 | 0.03 | 0.03 | 75 | 1021.9 |
| 20260502064041 | 14 | 0 | 0.0 | 0.0 | 0.00 | 0.03 | 0.03 | 75 | 1021.8 |
| 20260502063046 | 13 | 0 | 0.0 | 0.0 | 0.00 | 0.03 | 0.03 | 75 | 1021.8 |
| 20260502062042 | 13 | 0 | 0.0 | 0.0 | 0.00 | 0.03 | 0.03 | 75 | 1022.0 |
| 20260502061046 | 13 | 0 | 0.0 | 0.0 | 0.00 | 0.03 | 0.03 | 75 | 1022.0 |
| 20260502060043 | 12 | 0 | 0.0 | 0.0 | 0.00 | 0.03 | 0.03 | 77 | 1022.0 |